Regional Weather Roundup
Issued by NWS

Home | Current Version | Previous Version | Text Only | Print | Product List | Glossary Off
Versions: 1 2 3 4 5 6 7 8 9 10 11 12 13 14 15 16 17 18 19 20 21 22 23 24 25 26 27 28 29 30 31 32 33 34 35 36 37 38 39 40 41 42 43 44 45 46 47 48 49 50

670
ASUS44 KMEG 221410
RWRTN
TENNESSEE HOURLY STATE WEATHER ROUNDUP
NATIONAL WEATHER SERVICE MEMPHIS TN
900 AM CDT FRI MAY 22 2015

TNZ002-004-019-021-049-052-054-088>092-221500-
WEST TENNESSEE

CITY           SKY/WX    TMP DP  RH WIND       PRES   REMARKS
MEMPHIS INTL   MOSUNNY   61  46  57 E5        30.31R
NWS MEMPHIS      N/A     59 N/A N/A MISG        N/A
JACKSON        SUNNY     59  47  64 VRB3      30.31R
DYERSBURG      SUNNY     59  39  47 CALM      30.32R
PARIS          SUNNY     55  45  67 N6        30.32R
LEXINGTON      SUNNY     55  48  76 VRB7      30.29S
$$

TNZ008-025-027-028-033-062-065-066-221500-
NORTH MIDDLE TENNESSEE

CITY           SKY/WX    TMP DP  RH WIND       PRES   REMARKS
NASHVILLE      MOSUNNY   61  46  57 VRB6      30.32R
CLARKSVILLE    SUNNY     60  48  64 N6        30.31R
SMYRNA         SUNNY     58  47  66 NE5       30.33R
COOKEVILLE     SUNNY     57  46  67 N8        30.29R
CROSSVILLE     SUNNY     52  43  71 NE12      30.30R
$$

TNZ061-075-076-078-094-096-097-221500-
SOUTH MIDDLE TENNESSEE

CITY           SKY/WX    TMP DP  RH WIND       PRES   REMARKS
FAYETTEVILLE   SUNNY    N/A N/A N/A MISG      30.29S
TULLAHOMA      SUNNY     55  45  67 NE10      30.30R
WINCHESTER     SUNNY     55  46  71 NE5       30.30R
MCMINNVILLE    SUNNY     55  50  82 NE7       30.30R
COLUMBIA       SUNNY     57  48  72 NE7       30.29S
SHELBYVILLE    SUNNY     57  48  72 NE9       30.31R
$$

TNZ017-018-042-046-047-221500-
NORTHEAST TENNESSEE

CITY           SKY/WX    TMP DP  RH WIND       PRES   REMARKS
TRI CITIES     MOSUNNY   57  42  57 N7        30.28R
ELIZABETHTON   SUNNY     55  43  62 CALM      30.28S
$$

TNZ012-013-036-069-073-074-221500-
CENTRAL EAST TENNESSEE

CITY           SKY/WX    TMP DP  RH WIND       PRES   REMARKS
KNOXVILLE      MOSUNNY   58  43  57 NE14      30.27R
OAK RIDGE      SUNNY     60  44  55 VRB3      30.30R
GATLINBURG     SUNNY     57  43  58 NE10      30.28R
MORRISTOWN     SUNNY     57  43  58 E7        30.29S
$$

TNZ083-085-099-221500-
SOUTHEAST TENNESSEE

CITY           SKY/WX    TMP DP  RH WIND       PRES   REMARKS
CHATTANOOGA    MOSUNNY   60  43  53 NE15G24   30.28R
$$

SKY/WX REPORTED AS FAIR MEANS FEW OR NO CLOUDS BELOW
12 THOUSAND FEET.




USA.gov is the U.S. government's official web portal to all federal, state and local government web resources and services.